Weather History for PAHO - November, 2010

Change the Weather History Date:

Saturday, November 6, 2010

  Actual Average Record
Temperature  
Mean Temperature 32 °F -  
Max Temperature 34 °F 38 °F 49 °F (1993)
Min Temperature 30 °F 25 °F 4 °F (1956)
Degree Days  
Heating Degree Days 33    
Moisture  
Dew Point 31 °F    
Average Humidity 95    
Maximum Humidity 100    
Minimum Humidity 85    
Precipitation  
Precipitation 0.37 in - - ()
Sea Level Pressure  
Sea Level Pressure 29.16 in    
Wind  
Wind Speed 3 mph (WSW)    
Max Wind Speed 7 mph    
Max Gust Speed -    
Visibility 4 miles    
Events Fog , Snow    
Averages and records for this station are not official NWS values.
T = Trace of Precipitation, MM = Missing Value Source: NWS Daily Summary

Daily Weather History Graph

Daily Weather History Graph

Search for Another Location

Airport or City:

Trip Planner

Search our weather history database for the weather conditions in past years. The results will help you decide how hot, cold, wet, or windy it might be!

Date:

Astronomy

Nov. 06, 2010 Rise Set
Actual Time 9:39 AM AKDT 5:58 PM AKDT
Civil Twilight 8:53 AM AKDT 6:44 PM AKDT
Nautical Twilight 8:04 AM AKDT 7:33 PM AKDT
Astronomical Twilight 7:16 AM AKDT 8:21 PM AKDT
Moon 11:07 AM AKDT (11/6) 5:32 PM AKDT (11/6)
Length of Visible Light 9h 50m
Length of Day
8h 18m
New Moon, 1% of the Moon is Illuminated
Nov 6
New Moon
Nov 13
First Quarter
Nov 21
Full
Nov 28
Last Quarter
Dec 5
New

Hourly Weather History & Observations

Time (AKDT) Temp. Windchill Dew Point Humidity Pressure Visibility Wind Dir Wind Speed Gust Speed Precip Events Conditions
12:53 AM 34.0 °F 28.0 °F 30.0 °F 85% 29.13 in 10.0 mi North 6.9 mph - N/A   Overcast
1:53 AM 34.0 °F - 30.0 °F 85% 29.13 in 10.0 mi Calm Calm - N/A   Overcast
2:53 AM 34.0 °F 31.0 °F 30.0 °F 85% 29.14 in 7.0 mi Variable 3.5 mph - 0.00 in Snow Light Snow
3:15 AM 33.8 °F - 30.2 °F 87% 29.14 in 4.0 mi Calm Calm - 0.00 in Snow Light Snow
3:41 AM 33.8 °F - 30.2 °F 87% 29.14 in 3.0 mi Calm Calm - 0.00 in Snow Light Snow
3:49 AM 33.8 °F 30.8 °F 30.2 °F 87% 29.14 in 2.5 mi NNE 3.5 mph - 0.00 in Snow Light Snow
3:53 AM 33.1 °F 30.0 °F 30.9 °F 92% 29.15 in 2.5 mi ENE 3.5 mph - 0.01 in Snow Light Snow
4:35 AM 32.0 °F - 30.2 °F 93% 29.15 in 2.0 mi Calm Calm - 0.02 in Snow Light Snow
4:43 AM 32.0 °F - 30.2 °F 93% 29.15 in 1.8 mi Calm Calm - 0.02 in Snow Light Snow
4:53 AM 32.0 °F - 30.9 °F 96% 29.16 in 1.5 mi Calm Calm - 0.03 in Snow Light Snow
5:02 AM 32.0 °F - 32.0 °F 100% 29.15 in 1.0 mi Calm Calm - 0.01 in Snow Light Snow
5:48 AM 30.2 °F - 30.2 °F 100% 29.15 in 0.8 mi Calm Calm - 0.05 in Snow Light Snow
5:53 AM 30.9 °F - 30.9 °F 100% 29.16 in 1.0 mi Calm Calm - 0.05 in Snow Light Snow
6:25 AM 32.0 °F - 32.0 °F 100% 29.15 in 2.0 mi Calm Calm - 0.03 in Snow Light Snow
6:32 AM 32.0 °F - 32.0 °F 100% 29.15 in 1.5 mi Calm Calm - 0.03 in Snow Light Snow
6:53 AM 32.0 °F - 32.0 °F 100% 29.15 in 1.2 mi Calm Calm - 0.05 in Snow Light Snow
7:04 AM 32.0 °F - 32.0 °F 100% 29.15 in 3.0 mi Calm Calm - 0.00 in Snow Light Snow
7:11 AM 30.2 °F - 30.2 °F 100% 29.15 in 7.0 mi Calm Calm - 0.00 in Snow Light Snow
7:17 AM 30.2 °F 25.4 °F 30.2 °F 100% 29.15 in 3.0 mi South 4.6 mph - 0.00 in   Overcast
7:53 AM 33.1 °F - 30.9 °F 92% 29.16 in 4.0 mi Calm Calm - 0.00 in   Overcast
8:49 AM 33.8 °F - 30.2 °F 87% 29.15 in 8.0 mi Calm Calm - 0.00 in   Overcast
8:53 AM 33.1 °F - 30.9 °F 92% 29.16 in 8.0 mi Calm Calm - 0.00 in   Overcast
9:38 AM 32.0 °F - 30.2 °F 93% 29.15 in 2.0 mi Calm Calm - 0.01 in Snow Light Snow
9:53 AM 32.0 °F - 30.9 °F 96% 29.16 in 1.5 mi Calm Calm - 0.02 in Snow Light Snow
10:53 AM 30.9 °F - 30.9 °F 100% 29.16 in 0.8 mi Calm Calm - 0.03 in Snow Light Snow
11:32 AM 30.2 °F 26.7 °F 30.2 °F 100% 29.16 in 0.5 mi SSW 3.5 mph - 0.04 in Fog , Snow Snow
12:01 PM 30.2 °F 24.3 °F 30.2 °F 100% 29.16 in 1.0 mi SW 5.8 mph - 0.00 in Snow Light Snow
12:17 PM 32.0 °F 27.5 °F 32.0 °F 100% 29.16 in 2.0 mi WSW 4.6 mph - 0.01 in Snow Light Snow
12:53 PM 32.0 °F 27.5 °F 32.0 °F 100% 29.16 in 2.0 mi WSW 4.6 mph - 0.03 in Snow Light Snow
1:53 PM 33.1 °F 30.0 °F 32.0 °F 96% 29.16 in 2.5 mi SW 3.5 mph - 0.01 in Snow Light Snow
2:00 PM 33.8 °F 29.6 °F 32.0 °F 93% 29.15 in 5.0 mi SW 4.6 mph - 0.00 in Snow Light Snow
2:33 PM 32.0 °F 27.5 °F 32.0 °F 100% 29.15 in 2.0 mi WSW 4.6 mph - 0.01 in Snow Light Snow
2:43 PM 32.0 °F 26.4 °F 32.0 °F 100% 29.16 in 2.5 mi WSW 5.8 mph - 0.02 in Snow Light Snow
2:53 PM 32.0 °F 26.4 °F 32.0 °F 100% 29.16 in 3.0 mi WSW 5.8 mph - 0.02 in Snow Light Snow
3:48 PM 33.8 °F 30.8 °F 32.0 °F 93% 29.16 in 2.0 mi West 3.5 mph - 0.02 in Snow Light Snow
3:53 PM 33.1 °F 30.0 °F 32.0 °F 96% 29.16 in 2.0 mi WNW 3.5 mph - 0.02 in Snow Light Snow
4:17 PM 32.0 °F - 32.0 °F 100% 29.16 in 1.0 mi Calm Calm - 0.02 in Snow Light Snow
4:53 PM 32.0 °F 28.7 °F 32.0 °F 100% 29.16 in 1.0 mi WSW 3.5 mph - 0.05 in Snow Light Snow
5:44 PM 32.0 °F 25.6 °F 32.0 °F 100% 29.16 in 2.0 mi SSW 6.9 mph - 0.03 in   Overcast
5:53 PM 33.1 °F 26.9 °F 32.0 °F 96% 29.17 in 3.0 mi SW 6.9 mph - 0.03 in Snow Light Snow
6:53 PM 33.1 °F 28.7 °F 30.0 °F 89% 29.18 in 5.0 mi NW 4.6 mph - 0.00 in   Overcast
7:53 PM 33.1 °F 27.7 °F 30.9 °F 92% 29.18 in 7.0 mi South 5.8 mph - 0.01 in   Overcast
8:53 PM 33.1 °F - 32.0 °F 96% 29.20 in 10.0 mi Calm Calm - 0.00 in   Overcast
9:53 PM 33.1 °F 27.7 °F 32.0 °F 96% 29.21 in 10.0 mi WSW 5.8 mph - 0.00 in   Overcast
10:08 PM 33.8 °F 30.8 °F 32.0 °F 93% 29.21 in 8.0 mi West 3.5 mph - 0.00 in Snow Light Snow
10:53 PM 33.1 °F 27.7 °F 32.0 °F 96% 29.23 in 9.0 mi WSW 5.8 mph - 0.00 in   Overcast
11:34 PM 33.8 °F 29.6 °F 32.0 °F 93% 29.23 in 10.0 mi SW 4.6 mph - 0.01 in   Overcast
11:53 PM 33.1 °F 28.7 °F 32.0 °F 96% 29.24 in 10.0 mi SW 4.6 mph - 0.01 in   Overcast